Wetterdaten: Woche 14.11.11 - 20.11.11 (KW46)
Datum Zeit Temperatur Luftfeuchte Luftdruck Niederschlag Windrichtung Sonnenschein Solar Wind
14.11.2011 00:00 1,5 C 98 % 1029,8 hPa 0,0 l/m N 0,00 h 0 W/m 2,7 km/h (1 Bft)
14.11.2011 01:00 1,3 C 98 % 1029,7 hPa 0,0 l/m O-SO 0,00 h 0 W/m 1,7 km/h (1 Bft)
14.11.2011 02:00 1,2 C 99 % 1029,8 hPa 0,0 l/m S-SO 0,00 h 0 W/m 3,7 km/h (1 Bft)
14.11.2011 03:00 1,3 C 99 % 1029,3 hPa 0,0 l/m N 0,00 h 0 W/m 1,9 km/h (1 Bft)
14.11.2011 04:00 1,4 C 99 % 1028,9 hPa 0,2 l/m N 0,00 h 0 W/m 1,6 km/h (1 Bft)
14.11.2011 05:00 1,6 C 99 % 1028,5 hPa 0,0 l/m N 0,00 h 0 W/m 1,6 km/h (1 Bft)
14.11.2011 06:00 1,5 C 99 % 1028,1 hPa 0,0 l/m N 0,00 h 0 W/m 1,2 km/h (1 Bft)
14.11.2011 07:00 1,3 C 99 % 1027,8 hPa 0,0 l/m S 0,00 h 6 W/m 2,3 km/h (1 Bft)
14.11.2011 08:00 1,3 C 99 % 1027,8 hPa 0,0 l/m S-SW 0,00 h 15 W/m 2,3 km/h (1 Bft)
14.11.2011 09:00 1,3 C 99 % 1027,6 hPa 0,0 l/m N 0,00 h 34 W/m 2,0 km/h (1 Bft)
14.11.2011 10:00 1,3 C 99 % 1027,4 hPa 0,0 l/m N 0,00 h 60 W/m 1,5 km/h (1 Bft)
14.11.2011 11:00 1,9 C 99 % 1026,8 hPa 0,0 l/m S 0,00 h 74 W/m 2,4 km/h (1 Bft)
14.11.2011 12:00 2,2 C 98 % 1026,0 hPa 0,0 l/m W 0,00 h 84 W/m 3,3 km/h (1 Bft)
14.11.2011 13:00 2,7 C 96 % 1025,3 hPa 0,0 l/m N-NO 0,00 h 71 W/m 4,5 km/h (1 Bft)
14.11.2011 14:00 2,6 C 96 % 1024,9 hPa 0,0 l/m N-NO 0,00 h 52 W/m 3,6 km/h (1 Bft)
14.11.2011 15:00 2,6 C 96 % 1024,7 hPa 0,0 l/m NO 0,00 h 23 W/m 4,6 km/h (1 Bft)
14.11.2011 16:00 2,4 C 95 % 1024,4 hPa 0,0 l/m NO 0,00 h 9 W/m 5,6 km/h (1 Bft)
14.11.2011 17:00 2,0 C 95 % 1024,3 hPa 0,0 l/m N 0,00 h 0 W/m 2,3 km/h (1 Bft)
14.11.2011 18:00 1,4 C 95 % 1024,4 hPa 0,0 l/m NO 0,00 h 0 W/m 3,6 km/h (1 Bft)
14.11.2011 19:00 1,1 C 96 % 1024,1 hPa 0,0 l/m N 0,00 h 0 W/m 2,8 km/h (1 Bft)
14.11.2011 20:00 0,6 C 97 % 1023,6 hPa 0,0 l/m N 0,00 h 0 W/m 3,1 km/h (1 Bft)
14.11.2011 21:00 0,4 C 97 % 1023,6 hPa 0,0 l/m N-NW 0,00 h 0 W/m 1,7 km/h (1 Bft)
14.11.2011 22:00 0,2 C 97 % 1023,4 hPa 0,0 l/m N-NO 0,00 h 0 W/m 3,5 km/h (1 Bft)
14.11.2011 23:00 -0,1 C 98 % 1023,1 hPa 0,0 l/m N 0,00 h 0 W/m 1,3 km/h (1 Bft)
15.11.2011 00:00 0,0 C 98 % 1022,8 hPa 0,0 l/m O 0,00 h 0 W/m 2,5 km/h (1 Bft)
15.11.2011 01:00 -0,1 C 98 % 1022,5 hPa 0,0 l/m O 0,00 h 0 W/m 4,1 km/h (1 Bft)
15.11.2011 02:00 -0,4 C 98 % 1022,1 hPa 0,0 l/m O-SO 0,00 h 0 W/m 2,4 km/h (1 Bft)
15.11.2011 03:00 -0,7 C 98 % 1021,9 hPa 0,0 l/m O-SO 0,00 h 0 W/m 2,3 km/h (1 Bft)
15.11.2011 04:00 -0,9 C 98 % 1021,8 hPa 0,0 l/m N 0,00 h 0 W/m 2,3 km/h (1 Bft)
15.11.2011 05:00 -0,9 C 98 % 1021,8 hPa 0,0 l/m O-SO 0,00 h 0 W/m 1,9 km/h (1 Bft)
15.11.2011 06:00 -1,0 C 98 % 1021,6 hPa 0,0 l/m N 0,00 h 0 W/m 2,3 km/h (1 Bft)
15.11.2011 07:00 -1,1 C 98 % 1021,7 hPa 0,0 l/m N 0,00 h 6 W/m 3,2 km/h (1 Bft)
15.11.2011 08:00 -1,2 C 98 % 1021,9 hPa 0,0 l/m O 0,00 h 13 W/m 4,9 km/h (1 Bft)
15.11.2011 09:00 -1,3 C 98 % 1021,8 hPa 0,0 l/m O 0,00 h 31 W/m 5,2 km/h (1 Bft)
15.11.2011 10:00 -0,9 C 98 % 1021,6 hPa 0,0 l/m O 0,00 h 51 W/m 3,9 km/h (1 Bft)
15.11.2011 11:00 -0,6 C 98 % 1021,4 hPa 0,0 l/m NO 0,00 h 63 W/m 5,9 km/h (2 Bft)
15.11.2011 12:00 -0,3 C 98 % 1020,8 hPa 0,0 l/m NO 0,00 h 64 W/m 6,8 km/h (2 Bft)
15.11.2011 13:00 0,1 C 97 % 1020,4 hPa 0,0 l/m O 0,00 h 53 W/m 6,0 km/h (2 Bft)
15.11.2011 14:00 0,2 C 96 % 1020,2 hPa 0,0 l/m O 0,00 h 36 W/m 3,9 km/h (1 Bft)
15.11.2011 15:00 0,2 C 96 % 1020,1 hPa 0,0 l/m O-NO 0,00 h 16 W/m 5,3 km/h (1 Bft)
15.11.2011 16:00 0,1 C 96 % 1020,4 hPa 0,0 l/m O-NO 0,00 h 7 W/m 4,5 km/h (1 Bft)
15.11.2011 17:00 -0,1 C 97 % 1020,8 hPa 0,0 l/m O-SO 0,00 h 0 W/m 4,3 km/h (1 Bft)
15.11.2011 18:00 -0,1 C 97 % 1021,1 hPa 0,0 l/m O-SO 0,00 h 0 W/m 6,8 km/h (2 Bft)
15.11.2011 19:00 -0,3 C 97 % 1021,1 hPa 0,0 l/m O 0,00 h 0 W/m 6,3 km/h (2 Bft)
15.11.2011 20:00 -0,3 C 97 % 1021,0 hPa 0,0 l/m O 0,00 h 0 W/m 5,8 km/h (1 Bft)
15.11.2011 21:00 -0,3 C 97 % 1020,9 hPa 0,0 l/m O-SO 0,00 h 0 W/m 6,0 km/h (2 Bft)
15.11.2011 22:00 -0,2 C 97 % 1020,8 hPa 0,0 l/m O 0,00 h 0 W/m 7,5 km/h (2 Bft)
15.11.2011 23:00 -0,3 C 96 % 1020,8 hPa 0,0 l/m O-SO 0,00 h 0 W/m 8,3 km/h (2 Bft)
16.11.2011 00:00 -0,2 C 96 % 1020,8 hPa 0,0 l/m O-SO 0,00 h 0 W/m 5,1 km/h (1 Bft)
16.11.2011 01:00 -0,2 C 95 % 1020,8 hPa 0,0 l/m O-SO 0,00 h 0 W/m 7,9 km/h (2 Bft)
16.11.2011 02:00 -0,3 C 96 % 1021,0 hPa 0,0 l/m O-NO 0,00 h 0 W/m 7,8 km/h (2 Bft)
16.11.2011 03:00 -0,4 C 96 % 1020,9 hPa 0,0 l/m O 0,00 h 0 W/m 6,6 km/h (2 Bft)
16.11.2011 04:00 -0,4 C 96 % 1020,9 hPa 0,0 l/m N 0,00 h 0 W/m 2,5 km/h (1 Bft)
16.11.2011 05:00 -0,5 C 96 % 1021,0 hPa 0,0 l/m S-SO 0,00 h 0 W/m 3,6 km/h (1 Bft)
16.11.2011 06:00 -0,6 C 96 % 1021,1 hPa 0,0 l/m N 0,00 h 0 W/m 3,1 km/h (1 Bft)
16.11.2011 07:00 -0,6 C 96 % 1021,5 hPa 0,0 l/m SW 0,00 h 5 W/m 3,3 km/h (1 Bft)
16.11.2011 08:00 -0,6 C 96 % 1021,7 hPa 0,0 l/m SW 0,00 h 10 W/m 4,1 km/h (1 Bft)
16.11.2011 09:00 -0,3 C 97 % 1022,1 hPa 0,0 l/m W-SW 0,00 h 22 W/m 4,8 km/h (1 Bft)
16.11.2011 10:00 -0,1 C 97 % 1022,3 hPa 0,0 l/m W-SW 0,00 h 35 W/m 4,4 km/h (1 Bft)
16.11.2011 11:00 0,2 C 97 % 1022,1 hPa 0,0 l/m SW 0,00 h 42 W/m 4,3 km/h (1 Bft)
16.11.2011 12:00 0,4 C 96 % 1021,9 hPa 0,0 l/m SW 0,00 h 48 W/m 4,7 km/h (1 Bft)
16.11.2011 13:00 0,8 C 95 % 1021,7 hPa 0,0 l/m W-SW 0,00 h 42 W/m 3,6 km/h (1 Bft)
16.11.2011 14:00 1,1 C 95 % 1021,5 hPa 0,0 l/m N 0,00 h 32 W/m 2,5 km/h (1 Bft)
16.11.2011 15:00 1,3 C 94 % 1021,6 hPa 0,0 l/m SW 0,00 h 21 W/m 5,2 km/h (1 Bft)
16.11.2011 16:00 1,3 C 93 % 1021,7 hPa 0,0 l/m SW 0,00 h 8 W/m 4,5 km/h (1 Bft)
16.11.2011 17:00 1,3 C 93 % 1022,1 hPa 0,0 l/m SW 0,00 h 0 W/m 2,1 km/h (1 Bft)
16.11.2011 18:00 1,1 C 93 % 1022,2 hPa 0,0 l/m N 0,00 h 0 W/m 1,6 km/h (1 Bft)
16.11.2011 19:00 0,6 C 93 % 1022,4 hPa 0,0 l/m N 0,00 h 0 W/m 0,1 km/h (0 Bft)
16.11.2011 20:00 0,2 C 94 % 1022,6 hPa 0,0 l/m N 0,00 h 0 W/m 0,3 km/h (0 Bft)
16.11.2011 21:00 0,1 C 96 % 1023,0 hPa 0,0 l/m N 0,00 h 0 W/m 0,8 km/h (0 Bft)
16.11.2011 22:00 -0,0 C 96 % 1023,3 hPa 0,0 l/m N 0,00 h 0 W/m 0,4 km/h (0 Bft)
16.11.2011 23:00 -0,5 C 96 % 1023,4 hPa 0,0 l/m N 0,00 h 0 W/m 1,5 km/h (1 Bft)
17.11.2011 00:00 -1,1 C 96 % 1023,6 hPa 0,0 l/m N 0,00 h 0 W/m 0,7 km/h (0 Bft)
17.11.2011 01:00 -1,2 C 97 % 1023,7 hPa 0,0 l/m N 0,00 h 0 W/m 2,0 km/h (1 Bft)
17.11.2011 02:00 -1,1 C 97 % 1023,9 hPa 0,0 l/m SW 0,00 h 0 W/m 3,9 km/h (1 Bft)
17.11.2011 03:00 -0,8 C 98 % 1024,0 hPa 0,0 l/m SW 0,00 h 0 W/m 6,5 km/h (2 Bft)
17.11.2011 04:00 -0,9 C 98 % 1024,3 hPa 0,0 l/m SW 0,00 h 0 W/m 6,7 km/h (2 Bft)
17.11.2011 05:00 -0,9 C 98 % 1024,6 hPa 0,0 l/m SW 0,00 h 0 W/m 6,5 km/h (2 Bft)
17.11.2011 06:00 -0,6 C 98 % 1024,8 hPa 0,0 l/m SW 0,00 h 0 W/m 7,5 km/h (2 Bft)
17.11.2011 07:00 -0,3 C 99 % 1025,3 hPa 0,0 l/m SW 0,00 h 7 W/m 9,4 km/h (2 Bft)
17.11.2011 08:00 -0,0 C 99 % 1025,6 hPa 0,0 l/m SW 0,00 h 24 W/m 7,5 km/h (2 Bft)
17.11.2011 09:00 0,6 C 99 % 1025,8 hPa 0,0 l/m SW 0,00 h 83 W/m 6,4 km/h (2 Bft)
17.11.2011 10:00 1,5 C 99 % 1025,8 hPa 0,0 l/m SW 0,42 h 212 W/m 8,7 km/h (2 Bft)
17.11.2011 11:00 2,5 C 97 % 1025,8 hPa 0,0 l/m SW 0,33 h 214 W/m 7,5 km/h (2 Bft)
17.11.2011 12:00 4,9 C 92 % 1025,6 hPa 0,0 l/m SW 1,00 h 366 W/m 6,9 km/h (2 Bft)
17.11.2011 13:00 7,1 C 86 % 1025,2 hPa 0,0 l/m SW 0,92 h 294 W/m 7,9 km/h (2 Bft)
17.11.2011 14:00 8,3 C 82 % 1024,9 hPa 0,0 l/m SW 1,00 h 236 W/m 6,9 km/h (2 Bft)
17.11.2011 15:00 8,3 C 80 % 1025,0 hPa 0,0 l/m SW 0,42 h 85 W/m 5,2 km/h (1 Bft)
17.11.2011 16:00 7,5 C 81 % 1025,0 hPa 0,0 l/m N 0,08 h 14 W/m 0,0 km/h (0 Bft)
17.11.2011 17:00 4,8 C 86 % 1025,4 hPa 0,0 l/m N 0,00 h 0 W/m 0,0 km/h (0 Bft)
17.11.2011 18:00 3,0 C 89 % 1025,7 hPa 0,0 l/m N 0,00 h 0 W/m 0,0 km/h (0 Bft)
17.11.2011 19:00 1,8 C 91 % 1025,9 hPa 0,0 l/m N 0,00 h 0 W/m 0,0 km/h (0 Bft)
17.11.2011 20:00 1,0 C 92 % 1025,9 hPa 0,0 l/m N 0,00 h 0 W/m 0,0 km/h (0 Bft)
17.11.2011 21:00 0,3 C 92 % 1026,1 hPa 0,0 l/m N 0,00 h 0 W/m 0,0 km/h (0 Bft)
17.11.2011 22:00 -0,3 C 93 % 1026,1 hPa 0,0 l/m N 0,00 h 0 W/m 0,0 km/h (0 Bft)
17.11.2011 23:00 -0,8 C 93 % 1026,0 hPa 0,0 l/m N 0,00 h 0 W/m 0,0 km/h (0 Bft)
18.11.2011 00:00 -1,3 C 93 % 1025,9 hPa 0,0 l/m N 0,00 h 0 W/m 0,0 km/h (0 Bft)
18.11.2011 01:00 -1,6 C 94 % 1025,8 hPa 0,0 l/m N 0,00 h 0 W/m 0,0 km/h (0 Bft)
18.11.2011 02:00 -1,8 C 94 % 1025,8 hPa 0,0 l/m N 0,00 h 0 W/m 0,0 km/h (0 Bft)
18.11.2011 03:00 -2,1 C 95 % 1025,7 hPa 0,0 l/m N 0,00 h 0 W/m 0,0 km/h (0 Bft)
18.11.2011 04:00 -2,3 C 95 % 1025,6 hPa 0,0 l/m N 0,00 h 0 W/m 0,0 km/h (0 Bft)
18.11.2011 05:00 -2,0 C 96 % 1025,5 hPa 0,2 l/m N 0,00 h 0 W/m 0,0 km/h (0 Bft)
18.11.2011 06:00 -1,9 C 96 % 1025,6 hPa 0,0 l/m N 0,00 h 0 W/m 0,0 km/h (0 Bft)
18.11.2011 07:00 -2,3 C 96 % 1025,7 hPa 0,0 l/m N 0,08 h 12 W/m 0,0 km/h (0 Bft)
18.11.2011 08:00 -2,1 C 96 % 1026,1 hPa 0,0 l/m N 0,00 h 40 W/m 0,0 km/h (0 Bft)
18.11.2011 09:00 -0,3 C 98 % 1026,2 hPa 0,0 l/m N 0,75 h 178 W/m 1,1 km/h (0 Bft)
18.11.2011 10:00 2,1 C 96 % 1026,0 hPa 0,0 l/m N 1,00 h 291 W/m 1,9 km/h (1 Bft)
18.11.2011 11:00 5,5 C 86 % 1025,4 hPa 0,0 l/m SW 1,00 h 363 W/m 2,7 km/h (1 Bft)
18.11.2011 12:00 8,1 C 77 % 1024,7 hPa 0,0 l/m SW 1,00 h 376 W/m 3,5 km/h (1 Bft)
18.11.2011 13:00 9,8 C 69 % 1024,0 hPa 0,0 l/m SW 1,00 h 306 W/m 4,0 km/h (1 Bft)
18.11.2011 14:00 10,4 C 69 % 1023,4 hPa 0,0 l/m SW 1,00 h 242 W/m 6,5 km/h (2 Bft)
18.11.2011 15:00 10,3 C 70 % 1023,2 hPa 0,0 l/m O-NO 0,92 h 95 W/m 7,9 km/h (2 Bft)
18.11.2011 16:00 9,8 C 70 % 1023,1 hPa 0,0 l/m O-SO 0,17 h 18 W/m 3,3 km/h (1 Bft)
18.11.2011 17:00 7,1 C 77 % 1023,2 hPa 0,0 l/m N 0,00 h 0 W/m 1,3 km/h (1 Bft)
18.11.2011 18:00 4,9 C 84 % 1023,1 hPa 0,0 l/m N 0,00 h 0 W/m 1,7 km/h (1 Bft)
18.11.2011 19:00 3,6 C 87 % 1022,8 hPa 0,0 l/m N 0,00 h 0 W/m 2,3 km/h (1 Bft)
18.11.2011 20:00 2,8 C 90 % 1022,7 hPa 0,0 l/m O-NO 0,00 h 0 W/m 3,6 km/h (1 Bft)
18.11.2011 21:00 2,2 C 92 % 1022,7 hPa 0,0 l/m N 0,00 h 0 W/m 1,9 km/h (1 Bft)
18.11.2011 22:00 1,4 C 91 % 1022,7 hPa 0,0 l/m N 0,00 h 0 W/m 0,0 km/h (0 Bft)
18.11.2011 23:00 0,4 C 92 % 1022,5 hPa 0,0 l/m N 0,00 h 0 W/m 0,0 km/h (0 Bft)
19.11.2011 00:00 -0,4 C 93 % 1022,4 hPa 0,0 l/m N 0,00 h 0 W/m 0,5 km/h (0 Bft)
19.11.2011 01:00 -0,7 C 94 % 1022,6 hPa 0,0 l/m N 0,00 h 0 W/m 1,2 km/h (1 Bft)
19.11.2011 02:00 -0,8 C 96 % 1022,8 hPa 0,0 l/m N 0,00 h 0 W/m 0,9 km/h (0 Bft)
19.11.2011 03:00 -0,6 C 97 % 1022,7 hPa 0,0 l/m N 0,00 h 0 W/m 0,9 km/h (0 Bft)
19.11.2011 04:00 -0,5 C 97 % 1022,8 hPa 0,0 l/m O-SO 0,00 h 0 W/m 0,9 km/h (0 Bft)
19.11.2011 05:00 -0,7 C 97 % 1022,9 hPa 0,0 l/m S 0,00 h 0 W/m 3,2 km/h (1 Bft)
19.11.2011 06:00 -0,4 C 98 % 1022,9 hPa 0,0 l/m S-SW 0,00 h 0 W/m 3,1 km/h (1 Bft)
19.11.2011 07:00 0,2 C 98 % 1023,0 hPa 0,0 l/m SW 0,00 h 6 W/m 5,6 km/h (1 Bft)
19.11.2011 08:00 0,5 C 98 % 1023,2 hPa 0,2 l/m SW 0,00 h 19 W/m 4,8 km/h (1 Bft)
19.11.2011 09:00 0,6 C 98 % 1023,3 hPa 0,0 l/m N 0,00 h 41 W/m 1,2 km/h (1 Bft)
19.11.2011 10:00 0,8 C 98 % 1023,2 hPa 0,0 l/m N 0,00 h 85 W/m 1,3 km/h (1 Bft)
19.11.2011 11:00 1,5 C 99 % 1022,9 hPa 0,0 l/m SW 0,33 h 178 W/m 1,7 km/h (1 Bft)
19.11.2011 12:00 3,6 C 95 % 1022,0 hPa 0,0 l/m SW 1,00 h 370 W/m 4,7 km/h (1 Bft)
19.11.2011 13:00 4,3 C 92 % 1021,7 hPa 0,0 l/m N-NW 0,83 h 264 W/m 7,1 km/h (2 Bft)
19.11.2011 14:00 4,5 C 91 % 1021,3 hPa 0,0 l/m N-NW 1,00 h 222 W/m 8,3 km/h (2 Bft)
19.11.2011 15:00 3,6 C 93 % 1021,5 hPa 0,0 l/m N-NW 0,50 h 82 W/m 7,9 km/h (2 Bft)
19.11.2011 16:00 3,0 C 95 % 1021,9 hPa 0,0 l/m N-NW 0,00 h 11 W/m 6,9 km/h (2 Bft)
19.11.2011 17:00 2,4 C 95 % 1022,2 hPa 0,0 l/m N 0,00 h 0 W/m 3,5 km/h (1 Bft)
19.11.2011 18:00 1,6 C 96 % 1022,4 hPa 0,0 l/m N-NW 0,00 h 0 W/m 4,1 km/h (1 Bft)
19.11.2011 19:00 0,9 C 96 % 1022,5 hPa 0,0 l/m N-NW 0,00 h 0 W/m 4,7 km/h (1 Bft)
19.11.2011 20:00 0,3 C 96 % 1022,6 hPa 0,0 l/m N-NW 0,00 h 0 W/m 4,4 km/h (1 Bft)
19.11.2011 21:00 0,2 C 97 % 1022,9 hPa 0,0 l/m N-NW 0,00 h 0 W/m 4,5 km/h (1 Bft)
19.11.2011 22:00 0,3 C 98 % 1022,9 hPa 0,0 l/m N-NW 0,00 h 0 W/m 4,4 km/h (1 Bft)
19.11.2011 23:00 0,3 C 98 % 1023,0 hPa 0,0 l/m N-NW 0,00 h 0 W/m 5,5 km/h (1 Bft)
20.11.2011 00:00 0,1 C 98 % 1022,8 hPa 0,0 l/m N-NW 0,00 h 0 W/m 4,9 km/h (1 Bft)
20.11.2011 01:00 -0,1 C 98 % 1022,9 hPa 0,0 l/m N-NW 0,00 h 0 W/m 7,8 km/h (2 Bft)
20.11.2011 02:00 -0,2 C 98 % 1022,9 hPa 0,0 l/m N 0,00 h 0 W/m 7,7 km/h (2 Bft)
20.11.2011 03:00 -0,3 C 98 % 1022,9 hPa 0,0 l/m N 0,00 h 0 W/m 4,9 km/h (1 Bft)
20.11.2011 04:00 -0,4 C 98 % 1022,8 hPa 0,0 l/m N 0,00 h 0 W/m 4,8 km/h (1 Bft)
20.11.2011 05:00 -0,4 C 98 % 1022,8 hPa 0,0 l/m N 0,00 h 0 W/m 3,9 km/h (1 Bft)
20.11.2011 06:00 -0,4 C 98 % 1023,0 hPa 0,0 l/m N 0,00 h 0 W/m 4,7 km/h (1 Bft)
20.11.2011 07:00 -0,5 C 98 % 1023,2 hPa 0,0 l/m N 0,00 h 7 W/m 3,3 km/h (1 Bft)
20.11.2011 08:00 -0,5 C 98 % 1023,6 hPa 0,0 l/m N 0,00 h 28 W/m 3,1 km/h (1 Bft)
20.11.2011 09:00 -0,2 C 99 % 1023,7 hPa 0,0 l/m N 0,00 h 56 W/m 3,9 km/h (1 Bft)
20.11.2011 10:00 0,5 C 99 % 1023,8 hPa 0,0 l/m N 0,17 h 145 W/m 3,3 km/h (1 Bft)
20.11.2011 11:00 1,6 C 96 % 1023,4 hPa 0,0 l/m N 0,25 h 151 W/m 2,5 km/h (1 Bft)
20.11.2011 12:00 3,9 C 89 % 1022,7 hPa 0,0 l/m N 1,00 h 380 W/m 4,9 km/h (1 Bft)
20.11.2011 13:00 6,0 C 85 % 1022,0 hPa 0,0 l/m N 0,50 h 212 W/m 5,2 km/h (1 Bft)
20.11.2011 14:00 6,7 C 83 % 1021,6 hPa 0,0 l/m N 0,00 h 109 W/m 6,1 km/h (2 Bft)
20.11.2011 15:00 6,5 C 86 % 1021,5 hPa 0,0 l/m N 0,00 h 60 W/m 5,1 km/h (1 Bft)
20.11.2011 16:00 5,8 C 88 % 1021,4 hPa 0,0 l/m N 0,00 h 11 W/m 3,6 km/h (1 Bft)
20.11.2011 17:00 4,5 C 90 % 1021,6 hPa 0,0 l/m N 0,00 h 0 W/m 2,7 km/h (1 Bft)
20.11.2011 18:00 3,5 C 92 % 1021,7 hPa 0,0 l/m N 0,00 h 0 W/m 0,4 km/h (0 Bft)
20.11.2011 19:00 2,7 C 93 % 1021,6 hPa 0,0 l/m N 0,00 h 0 W/m 0,0 km/h (0 Bft)
20.11.2011 20:00 2,1 C 94 % 1021,6 hPa 0,0 l/m N 0,00 h 0 W/m 2,7 km/h (1 Bft)
20.11.2011 21:00 1,6 C 95 % 1021,5 hPa 0,0 l/m N 0,00 h 0 W/m 3,1 km/h (1 Bft)
20.11.2011 22:00 1,0 C 96 % 1021,5 hPa 0,0 l/m N 0,00 h 0 W/m 0,7 km/h (0 Bft)
20.11.2011 23:00 0,4 C 96 % 1021,5 hPa 0,0 l/m N 0,00 h 0 W/m 0,7 km/h (0 Bft)
Min-Datum _ 18.11.11 18.11.11 15.11.11 - - - - 14.11.11
_ Min-Zeit 04:35 13:35 15:00 - - - - 00:20
Minimum _ -2,4 C 68 % 1020,0 hPa - - - - 0,0 km/h (0 Bft)
Max-Datum _ 18.11.11 15.11.11 14.11.11 14.11.11 - 17.11.11 20.11.11 16.11.11
_ Max-Zeit 14:35 05:10 00:00 04:00 - 10:25 12:05 01:35
Maximum _ 10,5 C 100 % 1029,9 hPa 0,2 l/m - 0,08 h 450 W/m 14,5 km/h
O-SO (3 Bft)
Durchschnitt _ 1,2 C 94 % 1023,4 hPa #0,6 l/m SW #16:40 h 99 W/m 3,5 km/h (1 Bft)